Location: New Frontier Mobile Home Park
(32.8448°N, 116.9675°W)
Time: 23:11:20
(UTC+00:00)

CZ-2C R/B - Pass Details

Date: 14 July 2020
Orbit: 703 x 909 km, 98.1° (Epoch: 05 August)

Event Time Altitude Azimuth Distance (km) Brightness Sun altitude
Rises 03:26:48 0° 177° (S) 3,474 6.1 -6.2°
Reaches altitude 10° 03:29:17 10° 182° (S) 2,517 5.4 -6.7°
Maximum altitude 03:34:47 56° 260° (W) 1,004 3.9 -7.7°
Drops below altitude 10° 03:40:02 10° 338° (NNW) 2,407 6.5 -8.6°
Sets 03:42:22 0° 342° (NNW) 3,310 7.2 -9.0°
